Regional Weather Roundup
Issued by NWS Portland, ME

Home | Current Version | Previous Version | Text Only | Print | Product List | Glossary On
Versions: 1 2 3 4 5 6 7 8 9 10 11 12 13 14 15 16 17 18 19 20 21 22 23 24 25 26 27 28 29 30 31 32 33 34 35 36 37 38 39 40 41 42 43 44 45 46 47 48 49 50
000
ASUS41 KGYX 301210
RWRGYX
WEATHER ROUNDUP FOR MAINE AND NEW HAMPSHIRE
NATIONAL WEATHER SERVICE GRAY ME
800 AM EDT THU OCT 30 2014

MEZ002-005-006-010-012-015-018-020-021-024-026-027-029-301300-
MAINE

CITY           SKY/WX    TMP DP  RH WIND       PRES   REMARKS
PORTLAND       MOCLDY    39  37  92 CALM      29.90R
6HR MIN TEMP:  38; 6HR MAX TEMP:  48;

SANFORD        CLOUDY    41  36  81 SW8       29.90R
BAR HARBOR     CLEAR     43  43 100 SW3       29.87R
WISCASSET      FOG       37  37 100 CALM      29.90R VSB 3/4
6HR MIN TEMP:  36; 6HR MAX TEMP:  49;

ROCKLAND       CLEAR     37  36  93 CALM      29.87R
FRYEBURG       CLOUDY    38  36  92 CALM      29.89R
6HR MIN TEMP:  35; 6HR MAX TEMP:  44;

LEWISTONAUBURN CLOUDY    34  28  80 CALM      29.88R
AUGUSTA        MOCLDY    40  38  93 S5        29.88R
6HR MIN TEMP:  38; 6HR MAX TEMP:  46;

WATERVILLE     PTCLDY    37  32  81 SW6       29.85R
BANGOR         PTCLDY    38  37  97 CALM      29.87R
6HR MIN TEMP:  36; 6HR MAX TEMP:  47;

GREENVILLE       N/A     41  38  89 CALM      29.80R
6HR MIN TEMP:  39; 6HR MAX TEMP:  42;

MILLINOCKET    CLEAR     43  38  82 W3        29.83R
6HR MIN TEMP:  37; 6HR MAX TEMP:  44;

HOULTON        CLEAR     40  36  86 SW6       29.79R
6HR MIN TEMP:  37; 6HR MAX TEMP:  44;

PRESQUE ISLE   CLEAR     37  32  81 S5        29.78R
6HR MIN TEMP:  37; 6HR MAX TEMP:  45;

FRENCHVILLE    PTCLDY    38  31  76 NW10      29.76R
6HR MIN TEMP:  38; 6HR MAX TEMP:  42;

CARIBOU        CLEAR     39  36  89 VRB3      29.77R
6HR MIN TEMP:  37; 6HR MAX TEMP:  42;

$$

NHZ002-005-008-009-011-012-014-301300-
NEW HAMPSHIRE

CITY           SKY/WX    TMP DP  RH WIND       PRES   REMARKS
PORTSMOUTH     MOCLDY    44  38  82 W7        29.91R
ROCHESTER      CLOUDY    41  36  82 VRB5      29.91R
6HR MIN TEMP:  38; 6HR MAX TEMP:  46;

NASHUA         CLEAR     35  35 100 CALM      29.94R
MANCHESTER     MOCLDY    38  34  85 CALM      29.92R
6HR MIN TEMP:  37; 6HR MAX TEMP:  48;

CONCORD        CLOUDY    32  32 100 CALM      29.93R
6HR MIN TEMP:  30; 6HR MAX TEMP:  38;

LACONIA        CLOUDY    39  37  93 CALM      29.89R
PLYMOUTH       CLOUDY    36  36 100 CALM      29.91R
BERLIN         CLOUDY    35  34  96 S3        29.87R
6HR MIN TEMP:  30; 6HR MAX TEMP:  38; 6HR PCP:  0.01;

WHITEFIELD     CLOUDY    37  35  92 CALM      29.89R
6HR MIN TEMP:  32; 6HR MAX TEMP:  37; 6HR PCP: TRACE;

JAFFREY        CLOUDY    36  35  96 CALM      29.93R
6HR MIN TEMP:  33; 6HR MAX TEMP:  39;

LEBANON        CLOUDY    41  37  86 N5        29.90R
6HR MIN TEMP:  35; 6HR MAX TEMP:  41;

MT WASHINGTON  FOG       25  25 100 W32         N/A  VSB 0   WCI   7
6HR MIN TEMP:  24; 6HR MAX TEMP:  25;

$$

VTZ005-007-008-301300-
VERMONT

CITY           SKY/WX    TMP DP  RH WIND       PRES   REMARKS
ST JOHNSBURY     N/A     40  38  93 MISG      29.88R
MONTPELIER     CLOUDY    42  38  85 SW3       29.93R
BURLINGTON     MOCLDY    47  37  68 NW13      29.93R
$$

MAZ007-012-024-CTZ003-RIZ002-NYZ038-NYZ072-301300-
SOUTHERN NEW ENGLAND AND NY

CITY           SKY/WX    TMP DP  RH WIND       PRES   REMARKS
BOSTON         PTCLDY    50  39  66 W9        29.93R
WORCESTER      PTCLDY    42  36  79 W9        29.93R
NANTUCKET      CLOUDY    53  39  59 N12       29.92R
PROVIDENCE     PTCLDY    44  39  82 W6        29.95R
HARTFORD       MOCLDY    41  38  89 CALM      29.96R
ALBANY         MOCLDY    45  38  76 W8        29.98R
NEW YORK CITY  PTCLDY    50  44  80 NW7       29.98R
$$

ANZ081-ANZ082-ANZ150-NHZ014-MEZ023>029-301300-
COASTAL MARINE OBSERVATIONS

STATION/POSITION TIME  TEMP    WIND        PRES    WAVE
                       AIR SEA DIR/SP/G            HT/PER
                 (UTC) (F)     (DEG/KT/KT) (MB)    (FT/S)
MOUNT DESERT ROC 1200   51                 1011.2R
MATINICUS ROCK   1200          310/  9/  9 1011.3R
PORTLAND WX BUOY 1150   47 53  340/  4/  6 1012.2R   2/ 6
WELLS            1100   45 51  290/  7/ 10 1011.1R
ISLE OF SHOALS   1200   49     280/ 16/ 18 1012.0R
JEFFREYS LEDGE   1121      54                N/A     3/ 4
CASHES LEDGE BUO 1150   53 55  300/  8/ 10 1011.7R
$$

.............KEY..............
   WCI - WIND CHILL
   TC  - TEMPERATURE IN CELSIUS
   VSB - VISIBILITY IN MILES
   HX  - HEAT INDEX
   FAIR- INDICATES FEW OR NO CLOUDS BELOW 12,000 FT, WITH NO
         SIGNIFICANT WEATHER AND/OR OBSTRUCTIONS TO VISIBILITY.





USA.gov is the U.S. government's official web portal to all federal, state and local government web resources and services.